Watertown, NY

7:01 AM EST on January 17, 2018 (GMT -0500)
Watertown International

Weather History for KART - July, 2013

Change the Weather History Date:

Monday, July 29, 2013

  Actual Average Record
Temperature  
Mean Temperature 65 °F 69 °F  
Max Temperature 73 °F 79 °F 91 °F (1955)
Min Temperature 57 °F 59 °F 42 °F (1989)
Degree Days  
Heating Degree Days 0 1  
Month to date heating degree days 10 30  
Since 1 June heating degree days 113 137  
Since 1 July heating degree days 10 30  
Cooling Degree Days 0 5  
Month to date cooling degree days 220 134  
Year to date cooling degree days 326 207  
Since 1 June cooling degree days 294 196  
Growing Degree Days 15 (Base 50)    
Moisture  
Dew Point 57 °F    
Average Humidity 73    
Maximum Humidity 93    
Minimum Humidity 53    
Precipitation  
Precipitation 0.01 in 0.09 in 0.90 in (1957)
Month to date precipitation 3.05 2.46  
Year to date precipitation 19.71 18.46  
Sea Level Pressure  
Sea Level Pressure 30.03 in    
Wind  
Wind Speed 7 mph (SSW)    
Max Wind Speed 20 mph    
Max Gust Speed 26 mph    
Visibility 10 miles    
Events Rain , Thunderstorm    
T = Trace of Precipitation, MM = Missing Value Source: NWS Daily Summary

Daily Weather History Graph

Daily Weather History Graph

Search for Another Location

Airport or City:

Trip Planner

Search our weather history database for the weather conditions in past years. The results will help you decide how hot, cold, wet, or windy it might be!

Date:

Astronomy

Jul. 29, 2013 Rise Set
Actual Time 5:49 AM EDT 8:31 PM EDT
Civil Twilight 5:15 AM EDT 9:04 PM EDT
Nautical Twilight 4:33 AM EDT 9:46 PM EDT
Astronomical Twilight 3:45 AM EDT 10:34 PM EDT
Moon No Moon Rise 1:47 PM EDT (7/29)
Length of Visible Light 15h 48m
Length of Day
14h 41m
Waning Gibbous, 51% of the Moon is Illuminated
Jul 29
Waning Gibbous
Jul 29
Last Quarter
Aug 6
New
Aug 14
First Quarter
Aug 20
Full

Hourly Weather History & Observations

Time (EDT) Temp. Dew Point Humidity Pressure Visibility Wind Dir Wind Speed Gust Speed Precip Events Conditions
12:56 AM 62.1 °F 59.0 °F 90% 29.96 in 10.0 mi ESE 3.5 mph - N/A   Overcast
1:56 AM 59.0 °F 57.0 °F 93% 29.97 in 10.0 mi Calm Calm - N/A   Partly Cloudy
2:56 AM 57.9 °F 55.9 °F 93% 29.96 in 9.0 mi Calm Calm - N/A   Clear
3:56 AM 57.9 °F 55.9 °F 93% 29.96 in 10.0 mi South 3.5 mph - N/A   Clear
4:56 AM 59.0 °F 55.9 °F 90% 29.97 in 10.0 mi South 4.6 mph - N/A   Scattered Clouds
5:56 AM 60.1 °F 57.0 °F 90% 29.98 in 10.0 mi South 4.6 mph - N/A   Mostly Cloudy
6:56 AM 61.0 °F 57.9 °F 90% 29.99 in 10.0 mi South 3.5 mph - N/A   Clear
7:56 AM 64.9 °F 60.1 °F 84% 29.99 in 10.0 mi South 5.8 mph - N/A   Clear
8:56 AM 66.9 °F 60.1 °F 79% 30.00 in 10.0 mi SSW 10.4 mph - N/A   Mostly Cloudy
9:56 AM 66.0 °F 59.0 °F 78% 30.01 in 10.0 mi South 10.4 mph 17.3 mph 0.01 in   Mostly Cloudy
10:56 AM 69.1 °F 55.9 °F 63% 30.01 in 10.0 mi SW 15.0 mph 23.0 mph N/A   Overcast
11:56 AM 72.0 °F 55.9 °F 57% 30.02 in 10.0 mi WSW 12.7 mph 19.6 mph N/A   Overcast
12:56 PM 71.1 °F 55.9 °F 59% 30.03 in 10.0 mi WSW 13.8 mph 19.6 mph N/A   Mostly Cloudy
1:56 PM 70.0 °F 55.9 °F 61% 30.03 in 10.0 mi West 13.8 mph 24.2 mph N/A   Mostly Cloudy
2:56 PM 73.0 °F 57.0 °F 57% 30.04 in 10.0 mi WSW 13.8 mph 23.0 mph N/A   Mostly Cloudy
3:56 PM 71.1 °F 53.1 °F 53% 30.04 in 10.0 mi SW 13.8 mph 19.6 mph N/A   Mostly Cloudy
4:56 PM 70.0 °F 55.9 °F 61% 30.05 in 10.0 mi WSW 10.4 mph - N/A   Mostly Cloudy
5:56 PM 69.1 °F 57.0 °F 65% 30.05 in 10.0 mi SW 9.2 mph - 0.00 in Rain Light Rain
6:56 PM 68.0 °F 59.0 °F 73% 30.05 in 10.0 mi SW 6.9 mph - 0.00 in   Overcast
7:56 PM 66.9 °F 57.9 °F 73% 30.06 in 10.0 mi SSW 6.9 mph - 0.00 in   Overcast
8:56 PM 64.9 °F 57.9 °F 78% 30.07 in 10.0 mi South 3.5 mph - N/A   Overcast
9:16 PM 64.4 °F 57.2 °F 77% 30.08 in 10.0 mi SSW 5.8 mph - N/A Thunderstorm Mostly Cloudy
9:37 PM 64.4 °F 57.2 °F 77% 30.08 in 10.0 mi South 3.5 mph - 0.00 in Rain Light Rain
9:56 PM 64.0 °F 60.1 °F 87% 30.08 in 10.0 mi SW 4.6 mph - 0.00 in Rain Light Rain
10:56 PM 62.1 °F 59.0 °F 90% 30.09 in 10.0 mi Calm Calm - 0.00 in   Clear
11:56 PM 62.1 °F 59.0 °F 90% 30.09 in 10.0 mi SSE 3.5 mph - N/A   Mostly Cloudy